Ponta Delgada, Portugal

7:19 PM +00 on August 20, 2017 (GMT +0000)
Joao Paulo Ii

Weather History for LPPD - June, 2017

Change the Weather History Date:

Monday, June 19, 2017

  Actual Average (LPAZ) Record (LPAZ)
Temperature  
Mean Temperature 66 °F -  
Max Temperature 72 °F 70 °F 75 °F (2008)
Min Temperature 60 °F 61 °F 60 °F (1997)
Cooling Degree Days 1    
Growing Degree Days 16 (Base 50)    
Moisture  
Dew Point 57 °F    
Average Humidity 74    
Maximum Humidity 100    
Minimum Humidity 54    
Precipitation  
Precipitation 0.01 in - - ()
Sea Level Pressure  
Sea Level Pressure 30.05 in    
Wind  
Wind Speed 11 mph ()    
Max Wind Speed 20 mph    
Max Gust Speed 32 mph    
Visibility 7.6 miles    
Events Rain    
Averages and records for this station are not official NWS values.
T = Trace of Precipitation, MM = Missing Value Source: Averaged Metar Reports

Daily Weather History Graph

Daily Weather History Graph

Search for Another Location

Airport or City:

Trip Planner

Search our weather history database for the weather conditions in past years. The results will help you decide how hot, cold, wet, or windy it might be!

Date:

Astronomy

Jun. 19, 2017 Rise Set
Actual Time 6:20 AM +00 9:07 PM +00
Civil Twilight 5:49 AM +00 9:38 PM +00
Nautical Twilight 5:10 AM +00 10:18 PM +00
Astronomical Twilight 4:25 AM +00 11:02 PM +00
Moon 2:57 AM +00 (6/19) 3:52 PM +00 (6/19)
Length of Visible Light 15h 49m
Length of Day
14h 46m
Waning Crescent, 28% of the Moon is Illuminated
Jun 19
Waning Crescent
Jun 24
New
Jul 1
First Quarter
Jul 9
Full
Jul 16
Last Quarter

Hourly Weather History & Observations

Time (+00) Temp. Dew Point Humidity Pressure Visibility Wind Dir Wind Speed Gust Speed Precip Events Conditions
12:00 AM 65 °F 65 °F 99% 30.06 in 7 mi WSW 6.7 mph - - Rain Light Rain Showers
12:00 AM 66.2 °F 64.4 °F 94% 30.04 in 6.2 mi WNW 11.5 mph - N/A Rain Light Rain Showers
12:30 AM 64.4 °F 64.4 °F 100% 30.04 in 6.2 mi NW 5.8 mph - N/A Rain Light Rain Showers
1:00 AM 64.4 °F 62.6 °F 94% 30.04 in 6.2 mi North 8.1 mph - N/A Rain Light Rain
1:30 AM 64.4 °F 62.6 °F 94% 30.04 in 6.2 mi Variable 4.6 mph - N/A   Mostly Cloudy
2:00 AM 64.4 °F 60.8 °F 88% 30.04 in 6.2 mi Variable 6.9 mph - N/A   Mostly Cloudy
2:30 AM 64.4 °F 59.0 °F 83% 30.01 in 6.2 mi North 15.0 mph - N/A   Mostly Cloudy
3:00 AM 64 °F 61 °F 86% 30.02 in 12 mi NW 13.4 mph - -   Partly Cloudy
3:00 AM 64.4 °F 60.8 °F 88% 30.01 in 6.2 mi North 15.0 mph - N/A   Mostly Cloudy
3:30 AM 64.4 °F 59.0 °F 83% 30.01 in 6.2 mi North 16.1 mph - N/A Rain Light Rain Showers
4:00 AM 64.4 °F 59.0 °F 83% 30.01 in 6.2 mi North 16.1 mph - N/A   Mostly Cloudy
4:30 AM 64.4 °F 59.0 °F 83% 30.01 in 6.2 mi NNW 8.1 mph - N/A   Mostly Cloudy
5:00 AM 64.4 °F 57.2 °F 77% 30.01 in 6.2 mi NNW 11.5 mph - N/A   Scattered Clouds
5:30 AM 62.6 °F 57.2 °F 82% 30.01 in 6.2 mi North 11.5 mph - N/A   Scattered Clouds
6:00 AM 63 °F 58 °F 78% 30.04 in 12 mi West 6.7 mph - -   Partly Cloudy
6:00 AM 64.4 °F 57.2 °F 77% 30.01 in 6.2 mi NNW 12.7 mph - N/A   Scattered Clouds
6:30 AM 64.4 °F 57.2 °F 77% 30.01 in 6.2 mi North 15.0 mph - N/A   Mostly Cloudy
7:00 AM 62.6 °F 57.2 °F 82% 30.01 in 6.2 mi North 18.4 mph 32.2 mph N/A   Mostly Cloudy
7:30 AM 62.6 °F 57.2 °F 82% 30.04 in 6.2 mi North 19.6 mph 31.1 mph N/A   Scattered Clouds
8:00 AM 62.6 °F 55.4 °F 77% 30.04 in 6.2 mi North 19.6 mph 31.1 mph N/A   Scattered Clouds
8:30 AM 62.6 °F 57.2 °F 82% 30.04 in 6.2 mi North 16.1 mph - N/A   Scattered Clouds
9:00 AM 65 °F 57 °F 67% 30.06 in 19 mi NW 17.9 mph - -   Partly Cloudy
9:00 AM 64.4 °F 57.2 °F 77% 30.04 in 6.2 mi North 16.1 mph 27.6 mph N/A   Scattered Clouds
9:30 AM 66.2 °F 57.2 °F 73% 30.06 in 6.2 mi North 16.1 mph 27.6 mph N/A   Scattered Clouds
10:00 AM 66.2 °F 55.4 °F 68% 30.06 in 6.2 mi North 17.3 mph - N/A   Scattered Clouds
10:30 AM 68.0 °F 57.2 °F 68% 30.06 in 6.2 mi North 18.4 mph - N/A   Scattered Clouds
11:00 AM 68.0 °F 57.2 °F 68% 30.06 in 6.2 mi North 17.3 mph - N/A   Partly Cloudy
11:30 AM 68.0 °F 55.4 °F 64% 30.06 in 6.2 mi North 19.6 mph - N/A   Partly Cloudy
12:00 PM 68 °F 56 °F 57% 30.08 in 19 mi NNW 20.1 mph - -   Partly Cloudy
12:00 PM 68.0 °F 57.2 °F 68% 30.06 in 6.2 mi North 18.4 mph - N/A   Partly Cloudy
12:30 PM 68.0 °F 57.2 °F 68% 30.06 in 6.2 mi North 18.4 mph - N/A   Partly Cloudy
1:30 PM 68.0 °F 55.4 °F 64% 30.06 in 6.2 mi North 18.4 mph - N/A   Partly Cloudy
2:00 PM 68.0 °F 53.6 °F 60% 30.06 in 6.2 mi North 16.1 mph 27.6 mph N/A   Scattered Clouds
2:30 PM 68.0 °F 51.8 °F 56% 30.06 in 6.2 mi North 15.0 mph - N/A   Scattered Clouds
3:00 PM 68 °F 55 °F 54% 30.08 in 19 mi NW 11.2 mph - -   Partly Cloudy
3:00 PM 68.0 °F 53.6 °F 60% 30.06 in 6.2 mi North 16.1 mph - N/A   Scattered Clouds
3:30 PM 68.0 °F 53.6 °F 60% 30.06 in 6.2 mi North 16.1 mph - N/A   Partly Cloudy
4:00 PM 68.0 °F 51.8 °F 56% 30.06 in 6.2 mi North 16.1 mph - N/A   Partly Cloudy
4:30 PM 68.0 °F 53.6 °F 60% 30.06 in 6.2 mi North 15.0 mph - N/A   Partly Cloudy
5:00 PM 66.2 °F 55.4 °F 68% 30.06 in 6.2 mi North 13.8 mph - N/A   Scattered Clouds
5:30 PM 66.2 °F 53.6 °F 64% 30.06 in 6.2 mi North 15.0 mph - N/A   Scattered Clouds
6:00 PM 67 °F 54 °F 54% 30.08 in 19 mi WNW 11.2 mph - -   Mostly Cloudy
6:00 PM 66.2 °F 53.6 °F 64% 30.06 in 6.2 mi North 16.1 mph - N/A   Scattered Clouds
6:30 PM 66.2 °F 53.6 °F 64% 30.06 in 6.2 mi North 11.5 mph - N/A   Scattered Clouds
7:00 PM 66.2 °F 53.6 °F 64% 30.06 in 6.2 mi North 13.8 mph - N/A   Partly Cloudy
7:30 PM 64.4 °F 55.4 °F 73% 30.06 in 6.2 mi North 8.1 mph - N/A   Scattered Clouds
8:00 PM 64.4 °F 55.4 °F 73% 30.06 in 6.2 mi North 9.2 mph - N/A   Scattered Clouds
8:30 PM 64.4 °F 53.6 °F 68% 30.09 in 6.2 mi North 9.2 mph - N/A   Scattered Clouds
9:00 PM 63 °F 56 °F 72% 30.10 in 19 mi WNW 6.7 mph - -   Mostly Cloudy
9:00 PM 62.6 °F 55.4 °F 77% 30.09 in 6.2 mi NNW 8.1 mph - N/A   Scattered Clouds
9:30 PM 62.6 °F 55.4 °F 77% 30.09 in 6.2 mi North 11.5 mph - N/A   Scattered Clouds
10:00 PM 62.6 °F 55.4 °F 77% 30.09 in 6.2 mi NNW 6.9 mph - N/A   Mostly Cloudy
10:30 PM 60.8 °F 57.2 °F 88% 30.09 in 6.2 mi NNW 8.1 mph - N/A Rain Light Rain Showers
11:00 PM 60.8 °F 57.2 °F 88% 30.09 in 6.2 mi NW 6.9 mph - N/A   Mostly Cloudy
11:30 PM 60.8 °F 55.4 °F 82% 30.09 in 6.2 mi North 6.9 mph - N/A   Mostly Cloudy